Location: Bullenkuhlen
(53.7689°N, 9.7495°E)
Time: 13:08:42
(UTC+00:00)

COSMOS 2455 - Pass Details

Date: 09 April 2020
Orbit: 900 x 910 km, 67.1° (Epoch: 27 May)

Event Time Altitude Azimuth Distance (km) Brightness Sun altitude
Rises 20:00:12 0° 317° (NW) 3,547 7.7 -15.1°
Reaches altitude 10° 20:02:55 10° 309° (NW) 2,603 6.6 -15.4°
Maximum altitude 20:08:15 34° 247° (WSW) 1,461 4.2 -16.0°
Drops below altitude 10° 20:13:35 10° 184° (S) 2,591 4.9 -16.6°
Enters shadow 20:13:54 - 183° (S) 2,699 5.0 -16.6°
